Regional Weather Roundup
Issued by NWS

Home | Current Version | Previous Version | Graphics & Text | Print | Product List | Glossary On
Versions: 1 2 3 4 5 6 7 8 9 10 11 12 13 14 15 16 17 18 19 20 21 22 23 24 25 26 27 28 29 30 31 32 33 34 35 36 37 38 39 40 41 42 43 44 45 46 47 48 49 50
487
ASUS43 KTOP 192308
RWRKS

WEATHER ROUNDUP FOR KANSAS
NATIONAL WEATHER SERVICE GOODLAND KS
500 PM CST MON FEB 19 2018

NOTE:  "FAIR" INDICATES FEW OR NO CLOUDS BELOW 12,000 FEET WITH NO
SIGNIFICANT WEATHER AND/OR OBSTRUCTIONS TO VISIBILITY.

KSZ001>006-013>018-027>032-041>047-200000-
NORTHWEST KANSAS

CITY           SKY/WX    TMP DP  RH WIND       PRES   REMARKS
GOODLAND       CLOUDY    17  11  77 NE9       29.68F
HAYS           CLOUDY    25  16  68 NE9       29.80R
HILL CITY      CLOUDY    21  14  74 NE9       29.81R
RUSSELL        CLOUDY    28  17  63 N8        29.80F
$$

KSZ061>065-074>080-084>089-200000-
SOUTHWEST KANSAS

CITY           SKY/WX    TMP DP  RH WIND       PRES   REMARKS
DODGE CITY     MOSUNNY   34  17  50 E12       29.72F WCI  25
ELKHART        PTSUNNY   42  27  57 SE15      29.61F
GARDEN CITY    CLOUDY    32  17  54 E12       29.68F WCI  23
GREAT BEND     MOSUNNY   34  17  50 N8        29.81R
LIBERAL        MOSUNNY   38  22  52 E12       29.68S WCI  30
PRATT          CLOUDY    36  19  50 N9        29.75F
$$

KSZ066>073-081>083-090>101-200000-
SOUTHEAST KANSAS

CITY           SKY/WX    TMP DP  RH WIND       PRES   REMARKS
CHANUTE        CLOUDY    36  35  96 N9        29.79R FOG
COFFEYVILLE    LGT RAIN  40  39  97 NW14      29.78R FOG     WCI  32
HUTCHINSON     CLOUDY    31  23  72 N8        29.80R
MEDICINE LODGE   N/A     35  23  61 NE14      29.75F WCI  26
NEWTON         CLOUDY    30  23  75 N12       29.81R WCI  20
PARSONS        CLOUDY    40  39  97 N9        29.79R FOG
WICHITA INTL   CLOUDY    33  25  72 N13       29.79S WCI  24
WICHITA JABRA  CLOUDY    31  26  82 N14       29.79S WCI  21
WICHITA MCCONL CLOUDY    32  24  73 N13       29.79S WCI  22
WINFIELD       CLOUDY    33  30  88 N12       29.80S WCI  24
$$

KSZ007>012-019>026-033>040-048>060-102>105-200000-
NORTHEAST KANSAS

CITY           SKY/WX    TMP DP  RH WIND       PRES   REMARKS
CONCORDIA      CLOUDY    23  18  81 N9        29.84R
EMPORIA        CLOUDY    31  26  82 N12       29.81R WCI  22
LAWRENCE       CLOUDY    34  29  82 NW10      29.82R WCI  26
MANHATTAN      CLOUDY    32  22  66 VRB6      29.84S
MARYSVILLE     CLOUDY    27  21  80 N12       29.84S WCI  16
OLATHE IND     CLOUDY    33  31  92 NW12      29.81R FOG     WCI  24
OLATHE EXE     CLOUDY    32  31  96 NW8       29.80R FOG
SALINA         MOSUNNY   32  20  61 N12       29.83S WCI  23
TOPEKA BILLARD CLOUDY    33  28  81 NW12      29.83R WCI  24
TOPEKA FORBES  CLOUDY    33  27  78 NW12      29.81R WCI  24
$$




USA.gov is the U.S. government's official web portal to all federal, state and local government web resources and services.